This is the latest recevied weather packets stored in our database for station/object KK6LVQ-13. If no packets are shown the sender has not sent any weather packets the latest 10 day(s).
| Time | Temp. | Humidity | Pressure | Rain* | Wind** | Luminosity | Snow |
|---|---|---|---|---|---|---|---|
| 1777348770 | 9.44° C | 91% | 1024.1 hPa | 0 mm | - | 0 W/m² | - |
| 1777348468 | 9.44° C | 90% | 1024 hPa | 0 mm | - | 0 W/m² | - |
| 1777348165 | 10° C | 89% | 1023.8 hPa | 0 mm | - | 0 W/m² | - |
| 1777347863 | 10° C | 88% | 1023.9 hPa | 0 mm | - | 0 W/m² | - |
| 1777347561 | 10° C | 88% | 1023.7 hPa | 0 mm | - | 0 W/m² | - |
| 1777347256 | 10° C | 87% | 1023.7 hPa | 0 mm | - | 0 W/m² | - |
| 1777346953 | 10° C | 86% | 1023.6 hPa | 0 mm | - | 0 W/m² | - |
| 1777346650 | 10.56° C | 85% | 1023.4 hPa | 0 mm | - | 0 W/m² | - |
| 1777346345 | 10.56° C | 85% | 1023.3 hPa | 0 mm | - | 0 W/m² | - |
| 1777346043 | 10.56° C | 85% | 1023.5 hPa | 0 mm | - | 0 W/m² | - |
| 1777345740 | 10.56° C | 84% | 1023.3 hPa | 0 mm | - | 0 W/m² | - |
| 1777345437 | 10.56° C | 85% | 1023.2 hPa | 0 mm | - | 1 W/m² | - |
| 1777345134 | 10.56° C | 85% | 1023.2 hPa | 0 mm | - | 1 W/m² | - |
| 1777344830 | 11.11° C | 83% | 1023.2 hPa | 0 mm | - | 3 W/m² | - |
| 1777344525 | 11.11° C | 83% | 1023.4 hPa | 0 mm | - | 5 W/m² | - |
| 1777344223 | 11.11° C | 83% | 1023 hPa | 0 mm | - | 7 W/m² | - |
| 1777343921 | 11.11° C | 83% | 1023 hPa | 0 mm | - | 10 W/m² | - |
| 1777343618 | 11.11° C | 82% | 1023.1 hPa | 0 mm | - | 13 W/m² | - |
| 1777343315 | 11.67° C | 81% | 1022.9 hPa | 0 mm | - | 17 W/m² | - |
| 1777343013 | 11.67° C | 80% | 1022.9 hPa | 0 mm | - | 19 W/m² | - |
| 1777342710 | 11.67° C | 79% | 1022.9 hPa | 0 mm | - | 23 W/m² | - |
| 1777342406 | 12.22° C | 78% | 1022.8 hPa | 0 mm | - | 27 W/m² | - |
| 1777342104 | 12.22° C | 77% | 1022.9 hPa | 0 mm | - | 30 W/m² | - |
| 1777341800 | 12.78° C | 76% | 1022.8 hPa | 0 mm | - | 43 W/m² | - |
| 1777341496 | 12.78° C | 75% | 1022.7 hPa | 0 mm | - | 52 W/m² | - |
* Rain latest hour (hover to see other rain measurements)
** Current wind speed in m/s (hover to see current wind gust speed)